Location: Bartshausen
(51.8454°N, 9.8167°E)
Time: 12:23:14
(UTC+00:00)

Cosmos 1908 Rocket - Pass Details

Date: 08 November 2025
Orbit: 599 x 625 km, 82.5° (Epoch: 10 December)

Event Time Altitude Azimuth Distance (km) Brightness Sun altitude
Exits shadow 04:09:38 - 348° (NNW) 2,646 6.7 -21.4°
Reaches altitude 10° 04:11:11 10° 348° (NNW) 2,012 6.0 -21.2°
Maximum altitude 04:15:39 82° 263° (W) 638 3.4 -20.5°
Drops below altitude 10° 04:20:04 10° 175° (S) 1,986 6.2 -19.8°
Sets 04:22:16 0° 174° (S) 2,884 7.1 -19.5°
